• In Portugal
  • List of Countries
  • For 7 days
  • Water Temperature
  • Satellite Maps
  • Weather Map
  • Weather Widgets
  • user-avatar
    Login

    Hourly Weather Blizianka

    Today, 18 July, Wednesday

    Time Temperature Precipitation Wind Pressure Humidity
    00:00 +17°C° 0.1 mm 3 mps 721 mmHg 97%
    01:00 +17°C° 0.1 mm 3 mps 721 mmHg 97%
    02:00 +17°C° 0.1 mm 3 mps 721 mmHg 97%
    03:00 +17°C° 0.1 mm 3 mps 721 mmHg 97%
    04:00 +17°C° 0.1 mm 3 mps 721 mmHg 97%
    05:00 +17°C° 0.1 mm 3 mps 722 mmHg 97%
    06:00 +18°C° 0.1 mm 2 mps 722 mmHg 96%
    07:00 +18°C° 0.1 mm 2 mps 722 mmHg 95%
    08:00 +19°C° 0.2 mm 2 mps 722 mmHg 92%
    09:00 +20°C° 0.2 mm 2 mps 722 mmHg 89%
    10:00 +21°C° 0.2 mm 2 mps 722 mmHg 86%
    11:00 +21°C° 0.5 mm 2 mps 722 mmHg 84%
    12:00 +22°C° 0.5 mm 3 mps 722 mmHg 82%
    13:00 +22°C° 0.5 mm 3 mps 722 mmHg 80%
    14:00 +24°C° 0.3 mm 3 mps 722 mmHg 80%
    15:00 +24°C° 0.3 mm 3 mps 722 mmHg 80%
    16:00 +24°C° 0.3 mm 3 mps 722 mmHg 80%
    17:00 +22°C° 0.2 mm 3 mps 722 mmHg 84%
    18:00 +21°C° 0.2 mm 3 mps 722 mmHg 88%
    19:00 +21°C° 0.2 mm 3 mps 722 mmHg 91%
    20:00 +20°C° 0.3 mm 2 mps 722 mmHg 93%
    21:00 +19°C° 0.3 mm 2 mps 722 mmHg 94%
    22:00 +19°C° 0.3 mm 2 mps 723 mmHg 96%
    23:00 +19°C° 0.2 mm 2 mps 723 mmHg 96%

    Tomorrow, 19 July, Thursday

    Time Temperature Precipitation Wind Pressure Humidity
    00:00 +19°C° 0.2 mm 3 mps 723 mmHg 97%
    01:00 +19°C° 0.2 mm 3 mps 723 mmHg 98%
    02:00 +19°C° 0.4 mm 3 mps 723 mmHg 98%
    03:00 +19°C° 0.4 mm 3 mps 724 mmHg 98%
    04:00 +19°C° 0.4 mm 3 mps 724 mmHg 98%
    05:00 +19°C° 0.6 mm 4 mps 724 mmHg 97%
    06:00 +20°C° 0.6 mm 4 mps 724 mmHg 97%
    07:00 +20°C° 0.6 mm 4 mps 725 mmHg 96%
    08:00 +20°C° 0.4 mm 4 mps 725 mmHg 94%
    09:00 +21°C° 0.4 mm 4 mps 725 mmHg 93%
    10:00 +21°C° 0.4 mm 5 mps 725 mmHg 91%
    11:00 +22°C° 0.6 mm 5 mps 725 mmHg 89%
    12:00 +22°C° 0.6 mm 5 mps 725 mmHg 87%
    13:00 +22°C° 0.6 mm 5 mps 725 mmHg 86%
    14:00 +22°C° 0.4 mm 5 mps 725 mmHg 85%
    15:00 +22°C° 0.4 mm 5 mps 726 mmHg 84%
    16:00 +22°C° 0.4 mm 5 mps 726 mmHg 83%
    17:00 +21°C° 0.3 mm 5 mps 726 mmHg 86%
    18:00 +21°C° 0.3 mm 5 mps 726 mmHg 88%
    19:00 +20°C° 0.3 mm 5 mps 726 mmHg 90%
    20:00 +19°C° 0.2 mm 5 mps 726 mmHg 92%
    21:00 +19°C° 0.2 mm 4 mps 726 mmHg 93%
    22:00 +18°C° 0.2 mm 4 mps 726 mmHg 95%
    23:00 +18°C° 0.1 mm 4 mps 726 mmHg 95%

    Day after tomorrow, 20 July, Friday

    Time Temperature Precipitation Wind Pressure Humidity
    00:00 +18°C° 0.1 mm 4 mps 726 mmHg 96%
    01:00 +17°C° 0.1 mm 4 mps 726 mmHg 97%
    02:00 +17°C° 0 mm 4 mps 726 mmHg 97%
    03:00 +17°C° 0 mm 4 mps 726 mmHg 97%
    04:00 +17°C° 0 mm 4 mps 726 mmHg 97%
    05:00 +18°C° 0 mm 4 mps 727 mmHg 96%
    06:00 +18°C° 0 mm 4 mps 727 mmHg 94%
    07:00 +19°C° 0 mm 4 mps 727 mmHg 93%
    08:00 +20°C° 0.1 mm 4 mps 727 mmHg 88%
    09:00 +21°C° 0.1 mm 4 mps 727 mmHg 84%
    10:00 +22°C° 0.1 mm 5 mps 727 mmHg 80%
    11:00 +23°C° 0.2 mm 5 mps 727 mmHg 74%
    12:00 +25°C° 0.2 mm 5 mps 727 mmHg 68%
    13:00 +26°C° 0.2 mm 5 mps 727 mmHg 62%
    14:00 +26°C° 0.1 mm 5 mps 727 mmHg 63%
    15:00 +26°C° 0.1 mm 5 mps 727 mmHg 64%
    16:00 +25°C° 0.1 mm 4 mps 727 mmHg 66%
    17:00 +23°C° 0.1 mm 4 mps 727 mmHg 72%
    18:00 +22°C° 0.1 mm 3 mps 727 mmHg 78%
    19:00 +20°C° 0.1 mm 3 mps 727 mmHg 84%
    20:00 +19°C° 0 mm 2 mps 727 mmHg 86%
    21:00 +18°C° 0 mm 2 mps 727 mmHg 89%
    22:00 +17°C° 0 mm 2 mps 727 mmHg 91%
    23:00 +17°C° 0 mm 2 mps 727 mmHg 92%

    21 July, Saturday

    Time Temperature Precipitation Wind Pressure Humidity
    00:00 +17°C° 0 mm 2 mps 727 mmHg 94%
    01:00 +16°C° 0 mm 2 mps 726 mmHg 95%
    02:00 +16°C° 0 mm 2 mps 726 mmHg 95%
    03:00 +16°C° 0 mm 2 mps 727 mmHg 96%
    04:00 +15°C° 0 mm 2 mps 727 mmHg 96%
    05:00 +17°C° 0 mm 2 mps 727 mmHg 93%
    06:00 +18°C° 0 mm 2 mps 727 mmHg 89%
    07:00 +19°C° 0 mm 2 mps 727 mmHg 85%
    08:00 +21°C° 0 mm 2 mps 727 mmHg 78%
    09:00 +23°C° 0 mm 2 mps 727 mmHg 71%
    10:00 +25°C° 0 mm 2 mps 727 mmHg 64%
    11:00 +25°C° 0 mm 2 mps 727 mmHg 61%
    12:00 +26°C° 0 mm 2 mps 727 mmHg 58%
    13:00 +27°C° 0 mm 2 mps 727 mmHg 56%
    14:00 +27°C° 0 mm 2 mps 726 mmHg 57%
    15:00 +26°C° 0 mm 2 mps 726 mmHg 59%
    16:00 +26°C° 0 mm 2 mps 726 mmHg 61%
    17:00 +25°C° 0.1 mm 2 mps 726 mmHg 67%
    18:00 +23°C° 0.1 mm 1 mps 726 mmHg 72%
    19:00 +22°C° 0.1 mm 1 mps 726 mmHg 78%
    20:00 +21°C° 0.1 mm 1 mps 726 mmHg 80%
    21:00 +18°C° 0.1 mm 0 mps 726 mmHg 83%
    22:00 +17°C° 0.1 mm 0 mps 726 mmHg 85%
    23:00 +16°C° 0 mm 0 mps 726 mmHg 86%

    22 July, Sunday

    Time Temperature Precipitation Wind Pressure Humidity
    00:00 +16°C° 0 mm 0 mps 726 mmHg 87%
    01:00 +16°C° 0 mm 0 mps 725 mmHg 88%
    02:00 +15°C° 0 mm 0 mps 725 mmHg 89%
    03:00 +15°C° 0 mm 0 mps 725 mmHg 89%
    04:00 +15°C° 0 mm 0 mps 725 mmHg 90%
    05:00 +16°C° 0 mm 0 mps 725 mmHg 86%
    06:00 +20°C° 0 mm 1 mps 725 mmHg 81%
    07:00 +22°C° 0 mm 1 mps 726 mmHg 77%
    08:00 +23°C° 0.2 mm 1 mps 726 mmHg 74%
    09:00 +24°C° 0.2 mm 2 mps 725 mmHg 71%
    10:00 +25°C° 0.2 mm 2 mps 725 mmHg 67%
    11:00 +25°C° 0.3 mm 2 mps 725 mmHg 65%
    12:00 +26°C° 0.3 mm 2 mps 725 mmHg 63%
    13:00 +26°C° 0.3 mm 2 mps 725 mmHg 61%
    14:00 +26°C° 0.4 mm 2 mps 725 mmHg 62%
    15:00 +26°C° 0.4 mm 2 mps 725 mmHg 62%
    16:00 +26°C° 0.4 mm 2 mps 725 mmHg 63%
    17:00 +25°C° 0.2 mm 2 mps 725 mmHg 67%
    18:00 +23°C° 0.2 mm 2 mps 725 mmHg 72%
    19:00 +21°C° 0.2 mm 2 mps 725 mmHg 77%
    20:00 +20°C° 0 mm 2 mps 725 mmHg 79%
    21:00 +19°C° 0 mm 2 mps 725 mmHg 81%
    22:00 +18°C° 0 mm 2 mps 725 mmHg 83%
    23:00 +17°C° 0 mm 2 mps 725 mmHg 85%

    23 July, Monday

    Time Temperature Precipitation Wind Pressure Humidity
    00:00 +17°C° 0 mm 2 mps 725 mmHg 88%
    01:00 +16°C° 0 mm 2 mps 725 mmHg 90%
    02:00 +16°C° 0 mm 2 mps 725 mmHg 92%
    03:00 +16°C° 0 mm 2 mps 725 mmHg 94%
    04:00 +15°C° 0 mm 2 mps 726 mmHg 96%
    05:00 +17°C° 0 mm 2 mps 726 mmHg 93%
    06:00 +18°C° 0 mm 3 mps 726 mmHg 91%
    07:00 +19°C° 0 mm 3 mps 727 mmHg 89%
    08:00 +20°C° 0.2 mm 4 mps 727 mmHg 84%
    09:00 +21°C° 0.2 mm 4 mps 727 mmHg 79%
    10:00 +22°C° 0.2 mm 5 mps 727 mmHg 74%
    11:00 +23°C° 0.2 mm 5 mps 727 mmHg 70%
    12:00 +25°C° 0.2 mm 5 mps 727 mmHg 66%
    13:00 +25°C° 0.2 mm 5 mps 727 mmHg 62%
    14:00 +25°C° 0.1 mm 5 mps 727 mmHg 62%
    15:00 +25°C° 0.1 mm 5 mps 727 mmHg 62%
    16:00 +25°C° 0.1 mm 5 mps 727 mmHg 61%
    17:00 +23°C° 0 mm 4 mps 727 mmHg 67%
    18:00 +21°C° 0 mm 3 mps 727 mmHg 72%
    19:00 +20°C° 0 mm 3 mps 727 mmHg 77%
    20:00 +19°C° 0 mm 3 mps 727 mmHg 80%
    21:00 +18°C° 0 mm 3 mps 727 mmHg 82%
    22:00 +17°C° 0 mm 3 mps 728 mmHg 85%
    23:00 +16°C° 0 mm 2 mps 727 mmHg 88%
    Show more